Location: Reeth
(54.3881°N, 1.9432°W)
Time: 18:56:47
(UTC+00:00)

ISS - Visible Passes

Search period start: 21 February 2019 00:00
Search period end: 03 March 2019 00:00
Orbit: 403 x 411 km, 51.6° (Epoch: 22 February)

Date Brightness Start Highest point End Pass type
(mag) Time Alt. Az. Time Alt. Az. Time Alt. Az.
24 Feb -0.9 06:18:36 10° S 06:20:14 13° SE 06:21:53 10° ESE visible
26 Feb -1.5 06:10:53 10° SSW 06:13:28 22° SSE 06:16:04 10° E visible
27 Feb -1.2 05:20:09 10° S 05:22:11 16° SE 05:24:14 10° ESE visible
28 Feb -0.9 04:30:22 10° SSE 04:30:57 11° SE 04:31:41 10° SE visible
28 Feb -2.3 06:03:47 10° SW 06:06:45 32° SSE 06:09:44 10° E visible
01 Mar -2.0 05:13:43 17° SSW 05:15:23 25° SSE 05:18:07 10° E visible
02 Mar -1.5 04:24:17 18° SE 04:24:17 18° SE 04:26:22 10° ESE visible
02 Mar -3.0 05:56:59 10° WSW 06:00:03 44° SSE 06:03:12 10° E visible
